Weather History for Keahole Point, HI

Change the Weather History Date:

Friday, March 4, 2011

  Actual Average Record
Temperature  
Mean Temperature 78 °F -  
Max Temperature 84 °F 79 °F 85 °F (1986)
Min Temperature 72 °F 67 °F 62 °F (1990)
Cooling Degree Days 13    
Growing Degree Days 28 (Base 50)    
Moisture  
Dew Point 66 °F    
Average Humidity 67    
Maximum Humidity 84    
Minimum Humidity 49    
Precipitation  
Precipitation 0.02 in - - ()
Sea Level Pressure  
Sea Level Pressure 29.93 in    
Wind  
Wind Speed 13 mph (SSE)    
Max Wind Speed 20 mph    
Max Gust Speed 23 mph    
Visibility 10 miles    
Events Rain    
Averages and records for this station are not official NWS values.
T = Trace of Precipitation, MM = Missing Value Source: NWS Daily Summary

Daily Weather History Graph

Daily Weather History Graph

Search for Another Location

Airport:

Trip Planner

Search our weather history database for the weather conditions in past years. The results will help you decide how hot, cold, wet, or windy it might be!

Date:

Astronomy

Mar. 04, 2011 Rise Set
Actual Time 6:41 AM HST 6:30 PM HST
Civil Twilight 6:19 AM HST 6:52 PM HST
Nautical Twilight 5:53 AM HST 7:18 PM HST
Astronomical Twilight 5:28 AM HST 7:43 PM HST
Moon 6:25 AM HST (3/4) 6:40 PM HST (3/4)
Length of Visible Light 12h 33m
Length of Day
11h 48m
New Moon, 0% of the Moon is Illuminated
Mar 4
New Moon
Mar 12
First Quarter
Mar 19
Full
Mar 26
Last Quarter
Apr 3
New

Hourly Weather History & Observations

Time (HST) Temp. Heat Index Dew Point Humidity Pressure Visibility Wind Dir Wind Speed Gust Speed Precip Events Conditions
12:53 AM 75.0 °F - 64.9 °F 71% 29.91 in 10.0 mi SSE 10.4 mph - N/A   Clear
1:53 AM 75.9 °F - 63.0 °F 64% 29.88 in 10.0 mi SSE 15.0 mph - N/A   Clear
2:53 AM 73.9 °F - 63.0 °F 68% 29.90 in 10.0 mi SE 4.6 mph - N/A   Clear
3:53 AM 75.0 °F - 62.1 °F 64% 29.88 in 10.0 mi SSE 8.1 mph - N/A   Mostly Cloudy
4:53 AM 75.9 °F - 63.0 °F 64% 29.87 in 10.0 mi SE 19.6 mph 23.0 mph N/A   Mostly Cloudy
5:53 AM 75.9 °F - 61.0 °F 60% 29.87 in 10.0 mi SSE 12.7 mph - N/A   Clear
6:53 AM 77.0 °F - 63.0 °F 62% 29.88 in 10.0 mi SSW 8.1 mph - N/A   Clear
7:53 AM 78.1 °F - 64.9 °F 64% 29.92 in 10.0 mi SSE 13.8 mph - N/A   Clear
8:53 AM 79.0 °F - 68.0 °F 69% 29.94 in 10.0 mi South 16.1 mph - N/A   Partly Cloudy
9:53 AM 80.1 °F 82.7 °F 68.0 °F 67% 29.95 in 10.0 mi South 19.6 mph - N/A   Clear
10:53 AM 82.0 °F 84.9 °F 68.0 °F 62% 29.97 in 10.0 mi South 19.6 mph - N/A   Partly Cloudy
11:53 AM 82.0 °F 84.5 °F 66.9 °F 60% 29.94 in 10.0 mi South 19.6 mph - N/A   Clear
12:53 PM 82.9 °F 85.4 °F 66.9 °F 58% 29.92 in 10.0 mi South 19.6 mph - N/A   Clear
1:53 PM 84.0 °F 84.9 °F 63.0 °F 49% 29.91 in 10.0 mi SSE 19.6 mph - N/A   Clear
2:53 PM 84.0 °F 85.4 °F 64.0 °F 51% 29.88 in 10.0 mi South 18.4 mph - N/A   Clear
3:53 PM 81.0 °F 83.8 °F 68.0 °F 65% 29.89 in 10.0 mi South 17.3 mph - N/A   Clear
4:53 PM 80.1 °F 82.3 °F 66.9 °F 64% 29.90 in 10.0 mi SSE 12.7 mph - N/A   Clear
5:53 PM 80.1 °F 81.7 °F 64.0 °F 58% 29.92 in 10.0 mi SSE 9.2 mph - N/A   Clear
6:53 PM 78.1 °F - 68.0 °F 71% 29.95 in 10.0 mi SSE 4.6 mph - N/A   Mostly Cloudy
7:53 PM 77.0 °F - 69.1 °F 76% 29.95 in 10.0 mi NW 6.9 mph - 0.00 in Rain Light Rain
8:53 PM 75.9 °F - 66.9 °F 74% 29.98 in 10.0 mi North 8.1 mph - 0.00 in   Scattered Clouds
9:11 PM 75.2 °F - 68.0 °F 78% 29.99 in 10.0 mi NNW 17.3 mph - N/A   Overcast
9:18 PM 75.2 °F - 68.0 °F 78% 29.99 in 10.0 mi NNW 16.1 mph - N/A   Overcast
9:53 PM 73.9 °F - 68.0 °F 82% 29.99 in 10.0 mi NNW 16.1 mph - N/A   Overcast
10:53 PM 72.0 °F - 66.9 °F 84% 29.98 in 10.0 mi NNE 15.0 mph - 0.01 in Rain Light Rain
11:53 PM 73.0 °F - 66.9 °F 81% 29.95 in 10.0 mi North 13.8 mph - 0.01 in   Clear